Flag for Cameroon

Past Weather in Bertoua, Cameroon — Yesterday and Last 2 Weeks

Now
79 °F

Partly sunny.


Feels Like: 81 °F
Forecast: 83 / 67 °F
Wind: 5 mph from Southwest

Location: Yaounde Airport
Current Time: Oct 1, 2020 at 2:07:26 pm
Latest Report: Oct 1, 2020 at 1:00 pm
Visibility: 5 mi
Pressure29.98 "Hg(27.79 "Hg at 665m altitude)
Humidity: 74%
Dew Point: 70 °F
Location of BertouaLocation

Past Weather in Bertoua — Graph

°F

Bertoua Temperature Yesterday

Maximum temperature yesterday: 84 °F (at 2:00 pm)
Minimum temperature yesterday: 70 °F (at 12:00 am)
Average temperature yesterday: 75 °F

High & Low Weather Summary for the Past Weeks

 TemperatureHumidityPressure
High86 °F (Sep 16, 3:00 pm)100% (Sep 16, 6:00 pm)30.12 "Hg (Sep 16, 6:00 pm)
Low66 °F (Sep 23, 7:00 am)62% (Sep 16, 3:00 pm)29.92 "Hg (Sep 16, 3:00 pm)
Average73 °F91%30.03 "Hg
* Reported Sep 16 12:00 pm — Oct 1 12:00 pm, Bertoua. Weather by CustomWeather, © 2020

Note: Actual official high and low records may vary slightly from our data, if they occured in-between our weather recording intervals... More about our weather records

Bertoua Weather History for the Previous 24 Hours

Scroll right to see more
 ConditionsComfort  
Time TempWeatherWind HumidityBarometerVisibility
12:00 pm
Thu, Oct 1
77 °FPartly sunny.6 mph83%30.01 "Hg5 mi
11:00 am77 °FPartly sunny.2 mph83%30.04 "Hg5 mi
10:00 am73 °FPartly sunny.5 mph89%30.07 "Hg5 mi
9:00 am73 °FPartly sunny.5 mph89%30.04 "Hg5 mi
8:00 am72 °FPartly sunny.3 mph94%N/A5 mi
7:00 am70 °FPartly sunny.No wind94%30.01 "Hg5 mi
6:00 am68 °FPassing clouds.2 mph100%30.01 "Hg5 mi
5:00 am70 °FPassing clouds.3 mph94%29.98 "Hg5 mi
4:00 am70 °FPassing clouds.3 mph94%30.01 "Hg5 mi
3:00 am70 °FPassing clouds.5 mph100%29.98 "Hg5 mi
2:00 am70 °FPassing clouds.3 mph100%29.98 "Hg5 mi
12:00 am70 °FPassing clouds.3 mph100%30.04 "Hg5 mi
11:00 pm
Wed, Sep 30
72 °FPassing clouds.2 mph94%30.04 "Hg5 mi
10:00 pm72 °FPassing clouds.5 mph100%30.04 "Hg5 mi
9:00 pm73 °FPassing clouds.6 mph94%30.04 "Hg5 mi
8:00 pm73 °FPassing clouds.2 mph94%30.01 "Hg5 mi
7:00 pm75 °FThunderstorms. Passing clouds.5 mph89%30.01 "Hg5 mi
6:00 pm79 °FPartly sunny.3 mph79%29.95 "Hg5 mi
5:00 pm82 °FPartly sunny.7 mph70%29.95 "Hg5 mi
4:00 pm84 °FPartly sunny.5 mph66%29.95 "Hg5 mi
3:00 pm84 °FPartly sunny.3 mph66%29.95 "Hg5 mi
2:00 pm84 °FPartly sunny.3 mph62%30.01 "HgN/A
Weather by CustomWeather, © 2020

See weather overview